{"data":{"norad_id":68173,"epoch":"2026-09-19T21:54:14.692320Z","epoch_age_seconds":106830,"freshness":"FRESH","line1":"1 68173U 26050G   26262.91267005  .00015384  00000+0  46537-3 0  9994","line2":"2 68173  53.1582  80.7653 0000904 100.2685 259.8420 15.34408322 30471","mean_motion":15.34408322,"eccentricity":9.04e-5,"inclination_deg":53.1582,"raan_deg":80.7653,"arg_perigee_deg":100.2685,"mean_anomaly_deg":259.842,"bstar":0.00046537,"rev_number":3047,"period_min":93.847249089672,"perigee_km":462.06009585941,"apogee_km":463.29691530282,"semimajor_km":6840.8155055811,"source":"CELESTRAK","updated_at":"2026-09-20T09:00:43.799690Z"}}